Marion, VA

5:52 AM EDT on April 25, 2018 (GMT -0400)
Mountain Empire

Weather History for KMKJ - September, 2013

Change the Weather History Date:

Thursday, September 26, 2013

  Actual Average (KBLF) Record (KBLF)
Temperature  
Mean Temperature 66 °F -  
Max Temperature 74 °F 69 °F 87 °F (2007)
Min Temperature 57 °F 52 °F 37 °F (2001)
Growing Degree Days 16 (Base 50)    
Moisture  
Dew Point 57 °F    
Average Humidity 82    
Maximum Humidity 100    
Minimum Humidity 42    
Precipitation  
Precipitation 0.01 in - - ()
Sea Level Pressure  
Sea Level Pressure 30.06 in    
Wind  
Wind Speed 2 mph (East)    
Max Wind Speed 9 mph    
Max Gust Speed -    
Visibility 7 miles    
Events Rain    
Averages and records for this station are not official NWS values.
T = Trace of Precipitation, MM = Missing Value Source: NWS Daily Summary

Daily Weather History Graph

Daily Weather History Graph

Search for Another Location

Airport or City:

Astronomy

Sep. 26, 2013 Rise Set
Actual Time 7:16 AM EDT 7:15 PM EDT
Civil Twilight 6:50 AM EDT 7:41 PM EDT
Nautical Twilight 6:20 AM EDT 8:11 PM EDT
Astronomical Twilight 5:50 AM EDT 8:42 PM EDT
Moon No Moon Rise 2:00 PM EDT (9/26)
Length of Visible Light 12h 50m
Length of Day
11h 59m
Waning Gibbous, 55% of the Moon is Illuminated
Sep 26
Waning Gibbous
Sep 26
Last Quarter
Oct 4
New
Oct 11
First Quarter
Oct 18
Full

Hourly Weather History & Observations

Time (EDT) Temp. Dew Point Humidity Pressure Visibility Wind Dir Wind Speed Gust Speed Precip Events Conditions
12:15 AM 59.9 °F 59.9 °F 100% 29.99 in 4.0 mi East 3.5 mph - N/A   Overcast
12:35 AM 59.9 °F 59.9 °F 100% 30.00 in 4.0 mi Calm Calm - N/A   Overcast
12:55 AM 60.1 °F 60.1 °F 100% 30.00 in 5.0 mi ENE 3.5 mph - N/A   Overcast
1:15 AM 59.9 °F 59.9 °F 100% 30.00 in 5.0 mi East 4.6 mph - N/A   Overcast
1:35 AM 59.9 °F 59.9 °F 100% 30.00 in 4.0 mi East 3.5 mph - N/A   Overcast
1:55 AM 59.9 °F 59.9 °F 100% 30.00 in 4.0 mi ESE 3.5 mph - N/A Rain Rain
2:15 AM 59.7 °F 59.7 °F 100% 30.00 in 3.0 mi Calm Calm - 0.01 in Rain Light Rain
2:35 AM 59.5 °F 59.5 °F 100% 30.00 in 3.0 mi Calm Calm - 0.01 in   Overcast
2:55 AM 59.4 °F 59.4 °F 100% 30.00 in 3.0 mi Calm Calm - 0.01 in   Overcast
3:15 AM 59.4 °F 59.4 °F 100% 30.00 in 3.0 mi Calm Calm - N/A   Overcast
3:35 AM 59.5 °F 59.5 °F 100% 29.99 in 3.0 mi Calm Calm - N/A   Overcast
3:55 AM 59.5 °F 59.5 °F 100% 30.00 in 4.0 mi ENE 3.5 mph - N/A   Overcast
4:15 AM 59.5 °F 59.5 °F 100% 29.99 in 4.0 mi East 3.5 mph - N/A   Overcast
4:35 AM 59.2 °F 59.2 °F 100% 29.98 in 2.5 mi ESE 4.6 mph - N/A   Overcast
4:55 AM 59.2 °F 59.2 °F 100% 29.99 in 2.5 mi East 3.5 mph - N/A   Overcast
5:15 AM 59.4 °F 59.4 °F 100% 30.00 in 2.5 mi Calm Calm - N/A   Overcast
5:35 AM 59.4 °F 59.4 °F 100% 30.00 in 4.0 mi Calm Calm - N/A   Overcast
5:55 AM 59.2 °F 59.2 °F 100% 30.00 in 5.0 mi East 3.5 mph - N/A   Overcast
6:15 AM 58.3 °F 58.3 °F 100% 30.01 in 3.0 mi Calm Calm - N/A   Mostly Cloudy
6:35 AM 58.1 °F 58.1 °F 100% 30.01 in 4.0 mi NNE 3.5 mph - N/A   Mostly Cloudy
6:55 AM 58.1 °F 58.1 °F 100% 30.02 in 4.0 mi ESE 3.5 mph - N/A   Overcast
7:15 AM 57.9 °F 57.9 °F 100% 30.02 in 3.0 mi East 4.6 mph - N/A   Overcast
7:35 AM 58.1 °F 58.1 °F 100% 30.03 in 2.0 mi Calm Calm - N/A   Overcast
7:55 AM 58.1 °F 58.1 °F 100% 30.04 in 2.0 mi Calm Calm - N/A   Overcast
8:15 AM 58.3 °F 58.3 °F 100% 30.04 in 3.0 mi Calm Calm - N/A   Overcast
8:35 AM 58.3 °F 58.3 °F 100% 30.05 in 2.0 mi Calm Calm - N/A   Overcast
8:55 AM 58.6 °F 58.5 °F 99% 30.06 in 3.0 mi Calm Calm - N/A   Overcast
9:15 AM 59.4 °F 58.5 °F 97% 30.06 in 4.0 mi East 3.5 mph - N/A   Overcast
9:35 AM 59.9 °F 58.3 °F 94% 30.07 in 5.0 mi Calm Calm - N/A   Mostly Cloudy
9:55 AM 61.7 °F 59.7 °F 93% 30.08 in 5.0 mi ENE 3.5 mph - N/A   Mostly Cloudy
10:15 AM 63.5 °F 60.1 °F 89% 30.08 in 7.0 mi ENE 3.5 mph - N/A   Scattered Clouds
10:35 AM 64.0 °F 58.3 °F 82% 30.08 in 10.0 mi Calm Calm - N/A   Clear
10:55 AM 66.2 °F 57.4 °F 73% 30.08 in 10.0 mi East 4.6 mph - N/A   Scattered Clouds
11:15 AM 67.1 °F 57.6 °F 71% 30.08 in 10.0 mi Calm Calm - N/A   Scattered Clouds
11:35 AM 68.4 °F 56.3 °F 65% 30.08 in 10.0 mi Calm Calm - N/A   Scattered Clouds
11:55 AM 69.6 °F 54.7 °F 59% 30.08 in 10.0 mi East 6.9 mph - N/A   Scattered Clouds
12:15 PM 70.0 °F 54.3 °F 57% 30.08 in 10.0 mi NE 6.9 mph - N/A   Scattered Clouds
12:35 PM 69.8 °F 54.5 °F 58% 30.08 in 10.0 mi East 8.1 mph - N/A   Scattered Clouds
12:55 PM 70.7 °F 54.3 °F 56% 30.08 in 10.0 mi East 4.6 mph - N/A   Scattered Clouds
1:15 PM 70.9 °F 51.8 °F 51% 30.08 in 10.0 mi East 5.8 mph - N/A   Clear
1:35 PM 72.1 °F 50.4 °F 46% 30.08 in 10.0 mi ESE 6.9 mph - N/A   Clear
1:55 PM 72.3 °F 48.2 °F 42% 30.07 in 10.0 mi ENE 6.9 mph - N/A   Clear
2:15 PM 72.1 °F 49.8 °F 45% 30.06 in 10.0 mi ESE 5.8 mph - N/A   Scattered Clouds
2:35 PM 72.7 °F 50.5 °F 46% 30.06 in 10.0 mi ENE 6.9 mph - N/A   Scattered Clouds
2:55 PM 73.4 °F 51.1 °F 45% 30.06 in 10.0 mi ESE 8.1 mph - N/A   Scattered Clouds
3:15 PM 72.5 °F 50.4 °F 46% 30.06 in 10.0 mi East 4.6 mph - N/A   Mostly Cloudy
3:35 PM 73.2 °F 49.6 °F 43% 30.06 in 10.0 mi Calm Calm - N/A   Scattered Clouds
3:55 PM 73.6 °F 49.8 °F 43% 30.06 in 10.0 mi East 6.9 mph - N/A   Clear
4:15 PM 72.3 °F 48.7 °F 43% 30.06 in 10.0 mi SE 3.5 mph - N/A   Clear
4:35 PM 74.1 °F 50.4 °F 43% 30.06 in 10.0 mi Calm Calm - N/A   Scattered Clouds
4:55 PM 72.0 °F 50.2 °F 46% 30.06 in 10.0 mi Calm Calm - N/A   Overcast
5:15 PM 71.1 °F 52.7 °F 52% 30.07 in 10.0 mi East 9.2 mph - N/A   Overcast
5:35 PM 69.3 °F 53.8 °F 58% 30.08 in 10.0 mi East 4.6 mph - N/A   Overcast
5:55 PM 69.1 °F 54.7 °F 60% 30.08 in 10.0 mi East 3.5 mph - N/A   Overcast
6:15 PM 69.1 °F 54.7 °F 60% 30.08 in 10.0 mi Calm Calm - N/A   Scattered Clouds
6:35 PM 68.9 °F 55.0 °F 61% 30.09 in 10.0 mi Calm Calm - N/A   Clear
6:55 PM 67.3 °F 58.1 °F 72% 30.09 in 10.0 mi Calm Calm - N/A   Clear
7:15 PM 64.8 °F 57.2 °F 76% 30.09 in 10.0 mi Calm Calm - N/A   Clear
7:35 PM 63.3 °F 58.1 °F 83% 30.09 in 10.0 mi Calm Calm - N/A   Clear
7:55 PM 61.7 °F 58.1 °F 88% 30.10 in 10.0 mi Calm Calm - N/A   Clear
8:15 PM 61.0 °F 57.7 °F 89% 30.10 in 10.0 mi Calm Calm - N/A   Scattered Clouds
8:35 PM 59.9 °F 57.2 °F 91% 30.11 in 10.0 mi Calm Calm - N/A   Mostly Cloudy
8:55 PM 59.5 °F 57.4 °F 93% 30.12 in 10.0 mi Calm Calm - N/A   Mostly Cloudy
9:15 PM 59.2 °F 57.2 °F 93% 30.13 in 10.0 mi Calm Calm - N/A   Mostly Cloudy
9:35 PM 58.8 °F 56.8 °F 93% 30.13 in 10.0 mi Calm Calm - N/A   Overcast
9:55 PM 58.5 °F 56.7 °F 94% 30.14 in 10.0 mi Calm Calm - N/A   Overcast
10:15 PM 58.3 °F 56.3 °F 93% 30.14 in 10.0 mi Calm Calm - N/A   Overcast
10:35 PM 58.6 °F 56.8 °F 94% 30.14 in 10.0 mi Calm Calm - N/A   Mostly Cloudy
10:55 PM 58.1 °F 57.9 °F 99% 30.15 in 10.0 mi Calm Calm - N/A   Scattered Clouds
11:15 PM 57.4 °F 57.4 °F 100% 30.14 in 10.0 mi Calm Calm - N/A   Scattered Clouds
11:35 PM 57.2 °F 57.2 °F 100% 30.15 in 10.0 mi Calm Calm - N/A   Scattered Clouds
11:55 PM 57.2 °F 57.2 °F 100% 30.15 in 7.0 mi Calm Calm - N/A   Scattered Clouds